Terminal Aerodrome Forecast
Issued by NWS St Louis, MO

Home | Current Version | Previous Version | Graphics & Text | Print | Product List | Glossary On
Versions: 1 2 3 4 5 6 7 8 9 10 11 12 13 14 15 16 17 18 19 20 21 22 23 24 25
000
FTUS43 KLSX 161400 AAA
TAFSTL
TAF AMD
KSTL 161456Z 1615/1718 16014G23KT P6SM BKN250
     FM161900 17020G28KT P6SM BKN250
     FM170000 16010KT P6SM BKN250
     FM171500 23007KT P6SM SCT070=

USA.gov is the U.S. government's official web portal to all federal, state and local government web resources and services.